Terminal Aerodrome Forecast
Issued by NWS Grand Junction, CO

Home | Current Version | Previous Version | Text Only | Print | Product List | Glossary On
Versions: 1 2 3 4 5 6 7 8 9 10 11 12 13 14 15 16 17 18 19 20 21 22 23 24 25 26 27 28 29 30
000
FTUS45 KGJT 250541
TAFGJT
TAF
KGJT 250541Z 2506/2606 10005KT P6SM VCSH SCT050 OVC100
     FM251200 14010KT P6SM OVC050
     FM251600 14007KT 3SM -SN BR OVC020
     FM252000 33007KT 3SM -SN BR OVC015
     FM260300 04005KT P6SM VCSH SCT020 OVC040=

USA.gov is the U.S. government's official web portal to all federal, state and local government web resources and services.